Weather Roundup
Issued by NWS Chicago, IL

Home | Current Version | Previous Version | Text Only | Print | Product List | Glossary On
Versions: 1 2 3 4 5 6 7 8 9 10 11 12 13 14 15 16 17 18 19 20 21 22 23 24 25 26 27 28 29 30 31 32 33 34 35 36 37 38 39 40 41 42 43 44 45 46 47 48 49 50
000
NZUS59 KLOT 171512
HRRLOT

CHICAGO AREA WEATHER ROUNDUP
NATIONAL WEATHER SERVICE CHICAGO/ROMEOVILLE IL
900 AM CST TUE JAN 17 2017

NOTE: "FAIR" INDICATES FEW OR NO CLOUDS BELOW 12,000 FEET WITH NO
SIGNIFICANT WEATHER AND/OR OBSTRUCTIONS TO VISIBILITY.

* THESE STATIONS ARE NOT UNDER NWS QUALITY CONTROL. THEY ALSO MAY NOT
  REPORT WEATHER SUCH AS PRECIPITATION OR FOG.

ILZ005-006-012>014-019>023-171600-
NORTHEAST ILLINOIS

CITY           SKY/WX    TMP DP  RH WIND       PRES   REMARKS
OHARE          CLOUDY    36  36 100 W12       29.83R
MIDWAY         CLOUDY    35  35 100 W10       29.84R WCI  27
AURORA         FOG       36  35  96 W8        29.86R VSB 1/4
LANSING*       CLOUDY    38  38 100 W9        29.85R
JOLIET*        FOG       37  37 100 W6        29.87R VSB 1/2
WAUKEGAN       CLOUDY    36  36 100 W3        29.82R FOG
DUPAGE AIRPORT FOG       36  34  92 W7        29.84R VSB 3/4
WHEELING       CLOUDY    37  36  96 W7        29.84R
KANKAKEE*      CLOUDY    40  39  97 W13       29.89R FOG
MORRIS*        CLOUDY    36  36  99 W10G17    29.87R
LEWIS AIRPORT* FOG       35  35 100 W13       29.87R VSB 1/2 WCI  27
NORTHERLY ISL    N/A     38  37  97 W16         N/A
$$

WIZ051-052-058>065-066-070>072-171600-
SOUTHEAST WISCONSIN

CITY           SKY/WX    TMP DP  RH WIND       PRES   REMARKS
MILWAUKEE      FOG       38  36  92 N8        29.80R VSB 1
KENOSHA*       CLOUDY    36  35  96 W6        29.81R FOG
RACINE*        FOG       37  35  92 N9        29.82R VSB 1/2
WAUKESHA       CLOUDY    34  34 100 W6        29.82R FOG     WCI  29
WEST BEND      FOG       34  34 100 N6        29.80R VSB 1/2 WCI  29
$$

INZ001>003-010>013-019-020-171600-
NORTHWEST INDIANA

CITY           SKY/WX    TMP DP  RH WIND       PRES   REMARKS
GARY*          CLOUDY    41  39  93 W12G23    29.85R
MICHIGAN CITY* NOT AVBL
RENSSELAER*    NOT AVBL
VALPARAISO     CLOUDY    41  40  96 W12       29.85R
$$

LMZ740>746-171600-
SOUTHERN LAKE MICHIGAN

STATION/POSITION TIME  SKY/WX   TEMP WIND        PRES    VSBY
                                AIR  DIR/SP/G
                 (UTC)          (F)  (DEG/KT/KT) (MB)    (MI)
HARRISON CRIB    1440            38  270/ 13/ 14   N/A
BURNHAM HARBOR   1500            38  260/  8/ 14   N/A
CALUMET HARBOR   1448            38  240/  7/ 12 1009.9R
BURNS HARBOR     1440            39  240/ 12/ 15 1011.2R
MICHIGAN CITY    NOT AVBL
$$

ABBREVIATIONS USED IN REMARKS
   TC - TEMPERATURE IN CELSIUS
  WCI - WIND CHILL INDEX
   HX - HEAT INDEX
  VSB - VISIBILITY
$$



USA.gov is the U.S. government's official web portal to all federal, state and local government web resources and services.